Year,Month,Day,Hour,Minute,Value (Times are PST for temperature in C)
2013,08,24,00,00,16.40
2013,08,24,00,01,16.40
2013,08,24,00,02,16.40
2013,08,24,00,03,16.40
2013,08,24,00,04,16.40
2013,08,24,00,05,16.40
2013,08,24,00,06,16.40
2013,08,24,00,07,16.40
2013,08,24,00,08,16.40
2013,08,24,00,09,16.40
2013,08,24,00,10,16.40
2013,08,24,00,11,16.40
2013,08,24,00,12,16.40
2013,08,24,00,13,16.40
2013,08,24,00,14,16.40
2013,08,24,00,15,16.40
2013,08,24,00,16,16.40
2013,08,24,00,17,16.40
2013,08,24,00,18,16.40
2013,08,24,00,19,16.40
2013,08,24,00,20,16.40
2013,08,24,00,21,16.40
2013,08,24,00,22,16.40
2013,08,24,00,23,16.40
2013,08,24,00,24,16.40
2013,08,24,00,25,16.40
2013,08,24,00,26,16.40
2013,08,24,00,27,16.40
2013,08,24,00,28,16.40
2013,08,24,00,29,16.40
2013,08,24,00,30,16.40
2013,08,24,00,31,16.40
2013,08,24,00,32,16.40
2013,08,24,00,33,16.40
2013,08,24,00,34,16.40
2013,08,24,00,35,16.40
2013,08,24,00,36,16.40
2013,08,24,00,37,16.40
2013,08,24,00,38,16.40
2013,08,24,00,39,16.50
2013,08,24,00,40,16.60
2013,08,24,00,41,16.60
2013,08,24,00,42,16.60
2013,08,24,00,43,16.60
2013,08,24,00,44,16.60
2013,08,24,00,45,16.60
2013,08,24,00,46,16.60
2013,08,24,00,47,16.60
2013,08,24,00,48,16.60
2013,08,24,00,49,16.60
2013,08,24,00,50,16.60
2013,08,24,00,51,16.60
2013,08,24,00,52,16.60
2013,08,24,00,53,16.60
2013,08,24,00,54,16.60
2013,08,24,00,55,16.60
2013,08,24,00,56,16.60
2013,08,24,00,57,16.60
2013,08,24,00,58,16.60
2013,08,24,00,59,16.60
2013,08,24,01,00,16.60
2013,08,24,01,01,16.60
2013,08,24,01,02,16.60
2013,08,24,01,03,16.60
2013,08,24,01,04,16.60
2013,08,24,01,05,16.60
2013,08,24,01,06,16.60
2013,08,24,01,07,16.60
2013,08,24,01,08,16.60
2013,08,24,01,09,16.60
2013,08,24,01,10,16.60
2013,08,24,01,11,16.60
2013,08,24,01,12,16.60
2013,08,24,01,13,16.60
2013,08,24,01,14,16.60
2013,08,24,01,15,16.60
2013,08,24,01,16,16.60
2013,08,24,01,17,16.60
2013,08,24,01,18,16.60
2013,08,24,01,19,16.60
2013,08,24,01,20,16.60
2013,08,24,01,21,16.60
2013,08,24,01,22,16.50
2013,08,24,01,23,16.40
2013,08,24,01,24,16.40
2013,08,24,01,25,16.40
2013,08,24,01,26,16.40
2013,08,24,01,27,16.40
2013,08,24,01,28,16.40
2013,08,24,01,29,16.40
2013,08,24,01,30,16.40
2013,08,24,01,31,16.40
2013,08,24,01,32,16.40
2013,08,24,01,33,16.40
2013,08,24,01,34,16.40
2013,08,24,01,35,16.40
2013,08,24,01,36,16.40
2013,08,24,01,37,16.40
2013,08,24,01,38,16.40
2013,08,24,01,39,16.40
2013,08,24,01,40,16.40
2013,08,24,01,41,16.40
2013,08,24,01,42,16.40
2013,08,24,01,43,16.40
2013,08,24,01,44,16.40
2013,08,24,01,45,16.40
2013,08,24,01,46,16.40
2013,08,24,01,47,16.40
2013,08,24,01,48,16.40
2013,08,24,01,49,16.40
2013,08,24,01,50,16.40
2013,08,24,01,51,16.30
2013,08,24,01,52,16.30
2013,08,24,01,53,16.30
2013,08,24,01,54,16.30
2013,08,24,01,55,16.30
2013,08,24,01,56,16.30
2013,08,24,01,57,16.30
2013,08,24,01,58,16.30
2013,08,24,01,59,16.30
2013,08,24,02,00,16.30
2013,08,24,02,01,16.20
2013,08,24,02,02,16.20
2013,08,24,02,03,16.20
2013,08,24,02,04,16.20
2013,08,24,02,05,16.20
2013,08,24,02,06,16.20
2013,08,24,02,07,16.20
2013,08,24,02,08,16.20
2013,08,24,02,09,16.20
2013,08,24,02,10,16.10
2013,08,24,02,11,16.10
2013,08,24,02,12,16.10
2013,08,24,02,13,16.10
2013,08,24,02,14,16.10
2013,08,24,02,15,16.10
2013,08,24,02,16,16.10
2013,08,24,02,17,16.10
2013,08,24,02,18,16.10
2013,08,24,02,19,16.10
2013,08,24,02,20,16.10
2013,08,24,02,21,16.10
2013,08,24,02,22,16.10
2013,08,24,02,23,16.10
2013,08,24,02,24,16.10
2013,08,24,02,25,16.10
2013,08,24,02,26,16.10
2013,08,24,02,27,16.10
2013,08,24,02,28,16.10
2013,08,24,02,29,16.10
2013,08,24,02,30,16.10
2013,08,24,02,31,16.10
2013,08,24,02,32,16.10
2013,08,24,02,33,16.10
2013,08,24,02,34,16.10
2013,08,24,02,35,16.10
2013,08,24,02,36,16.10
2013,08,24,02,37,16.10
2013,08,24,02,38,16.10
2013,08,24,02,39,16.10
2013,08,24,02,40,16.10
2013,08,24,02,41,16.10
2013,08,24,02,42,16.10
2013,08,24,02,43,16.10
2013,08,24,02,44,16.10
2013,08,24,02,45,16.10
2013,08,24,02,46,16.10
2013,08,24,02,47,16.10
2013,08,24,02,48,16.10
2013,08,24,02,49,16.10
2013,08,24,02,50,16.10
2013,08,24,02,51,16.00
2013,08,24,02,52,15.90
2013,08,24,02,53,15.90
2013,08,24,02,54,15.90
2013,08,24,02,55,15.90
2013,08,24,02,56,15.90
2013,08,24,02,57,15.90
2013,08,24,02,58,15.90
2013,08,24,02,59,15.80
2013,08,24,03,00,15.80
2013,08,24,03,01,15.80
2013,08,24,03,02,15.80
2013,08,24,03,03,15.80
2013,08,24,03,04,15.80
2013,08,24,03,05,15.80
2013,08,24,03,06,15.80
2013,08,24,03,07,15.80
2013,08,24,03,08,15.80
2013,08,24,03,09,15.80
2013,08,24,03,10,15.80
2013,08,24,03,11,15.80
2013,08,24,03,12,15.80
2013,08,24,03,13,15.80
2013,08,24,03,14,15.80
2013,08,24,03,15,15.80
2013,08,24,03,16,15.80
2013,08,24,03,17,15.80
2013,08,24,03,18,15.80
2013,08,24,03,19,15.80
2013,08,24,03,20,15.80
2013,08,24,03,21,15.80
2013,08,24,03,22,15.80
2013,08,24,03,23,15.80
2013,08,24,03,24,15.80
2013,08,24,03,25,15.80
2013,08,24,03,26,15.80
2013,08,24,03,27,15.80
2013,08,24,03,28,15.80
2013,08,24,03,29,15.80
2013,08,24,03,30,15.80
2013,08,24,03,31,15.80
2013,08,24,03,32,15.80
2013,08,24,03,33,15.80
2013,08,24,03,34,15.80
2013,08,24,03,35,15.80
2013,08,24,03,36,15.80
2013,08,24,03,37,15.80
2013,08,24,03,38,15.80
2013,08,24,03,39,15.80
2013,08,24,03,40,15.80
2013,08,24,03,41,15.80
2013,08,24,03,42,15.80
2013,08,24,03,43,15.80
2013,08,24,03,44,15.80
2013,08,24,03,45,15.80
2013,08,24,03,46,15.80
2013,08,24,03,47,15.80
2013,08,24,03,48,15.80
2013,08,24,03,49,15.80
2013,08,24,03,50,15.80
2013,08,24,03,51,15.80
2013,08,24,03,52,15.80
2013,08,24,03,53,15.80
2013,08,24,03,54,15.80
2013,08,24,03,55,15.80
2013,08,24,03,56,15.80
2013,08,24,03,57,15.80
2013,08,24,03,58,15.80
2013,08,24,03,59,15.80
2013,08,24,04,00,15.80
2013,08,24,04,01,15.80
2013,08,24,04,02,15.70
2013,08,24,04,03,15.70
2013,08,24,04,04,15.70
2013,08,24,04,05,15.70
2013,08,24,04,06,15.70
2013,08,24,04,07,15.70
2013,08,24,04,08,15.70
2013,08,24,04,09,15.60
2013,08,24,04,10,15.60
2013,08,24,04,11,15.60
2013,08,24,04,12,15.60
2013,08,24,04,13,15.60
2013,08,24,04,14,15.60
2013,08,24,04,15,15.60
2013,08,24,04,16,15.60
2013,08,24,04,17,15.50
2013,08,24,04,18,15.50
2013,08,24,04,19,15.50
2013,08,24,04,20,15.50
2013,08,24,04,21,15.50
2013,08,24,04,22,15.50
2013,08,24,04,23,15.50
2013,08,24,04,24,15.50
2013,08,24,04,25,15.40
2013,08,24,04,26,15.40
2013,08,24,04,27,15.40
2013,08,24,04,28,15.30
2013,08,24,04,29,15.30
2013,08,24,04,30,15.30
2013,08,24,04,31,15.20
2013,08,24,04,32,15.10
2013,08,24,04,33,15.00
2013,08,24,04,34,15.00
2013,08,24,04,35,14.90
2013,08,24,04,36,14.80
2013,08,24,04,37,14.80
2013,08,24,04,38,14.70
2013,08,24,04,39,14.60
2013,08,24,04,40,14.60
2013,08,24,04,41,14.50
2013,08,24,04,42,14.50
2013,08,24,04,43,14.40
2013,08,24,04,44,14.40
2013,08,24,04,45,14.30
2013,08,24,04,46,14.30
2013,08,24,04,47,14.30
2013,08,24,04,48,14.20
2013,08,24,04,49,14.20
2013,08,24,04,50,14.20
2013,08,24,04,51,14.20
2013,08,24,04,52,14.20
2013,08,24,04,53,14.20
2013,08,24,04,54,14.20
2013,08,24,04,55,14.20
2013,08,24,04,56,14.20
2013,08,24,04,57,14.20
2013,08,24,04,58,14.30
2013,08,24,04,59,14.30
2013,08,24,05,00,14.30
2013,08,24,05,01,14.30
2013,08,24,05,02,14.30
2013,08,24,05,03,14.40
2013,08,24,05,04,14.40
2013,08,24,05,05,14.40
2013,08,24,05,06,14.40
2013,08,24,05,07,14.40
2013,08,24,05,08,14.40
2013,08,24,05,09,14.40
2013,08,24,05,10,14.40
2013,08,24,05,11,14.30
2013,08,24,05,12,14.30
2013,08,24,05,13,14.30
2013,08,24,05,14,14.20
2013,08,24,05,15,14.20
2013,08,24,05,16,14.20
2013,08,24,05,17,14.20
2013,08,24,05,18,14.20
2013,08,24,05,19,14.20
2013,08,24,05,20,14.20
2013,08,24,05,21,14.20
2013,08,24,05,22,14.20
2013,08,24,05,23,14.20
2013,08,24,05,24,14.10
2013,08,24,05,25,14.10
2013,08,24,05,26,14.10
2013,08,24,05,27,14.00
2013,08,24,05,28,14.00
2013,08,24,05,29,14.00
2013,08,24,05,30,14.00
2013,08,24,05,31,13.90
2013,08,24,05,32,13.90
2013,08,24,05,33,13.90
2013,08,24,05,34,13.80
2013,08,24,05,35,13.80
2013,08,24,05,36,13.80
2013,08,24,05,37,13.70
2013,08,24,05,38,13.70
2013,08,24,05,39,13.70
2013,08,24,05,40,13.70
2013,08,24,05,41,13.70
2013,08,24,05,42,13.70
2013,08,24,05,43,13.70
2013,08,24,05,44,13.70
2013,08,24,05,45,13.60
2013,08,24,05,46,13.60
2013,08,24,05,47,13.60
2013,08,24,05,48,13.60
2013,08,24,05,49,13.60
2013,08,24,05,50,13.60
2013,08,24,05,51,13.60
2013,08,24,05,52,13.60
2013,08,24,05,53,13.60
2013,08,24,05,54,13.60
2013,08,24,05,55,13.60
2013,08,24,05,56,13.60
2013,08,24,05,57,13.50
2013,08,24,05,58,13.50
2013,08,24,05,59,13.50
2013,08,24,06,00,13.50
2013,08,24,06,01,13.50
2013,08,24,06,02,13.50
2013,08,24,06,03,13.50
2013,08,24,06,04,13.50
2013,08,24,06,05,13.50
2013,08,24,06,06,13.50
2013,08,24,06,07,13.50
2013,08,24,06,08,13.40
2013,08,24,06,09,13.40
2013,08,24,06,10,13.40
2013,08,24,06,11,13.40
2013,08,24,06,12,13.40
2013,08,24,06,13,13.40
2013,08,24,06,14,13.40
2013,08,24,06,15,13.40
2013,08,24,06,16,13.40
2013,08,24,06,17,13.40
2013,08,24,06,18,13.40
2013,08,24,06,19,13.40
2013,08,24,06,20,13.40
2013,08,24,06,21,13.40
2013,08,24,06,22,13.40
2013,08,24,06,23,13.40
2013,08,24,06,24,13.40
2013,08,24,06,25,13.40
2013,08,24,06,26,13.40
2013,08,24,06,27,13.40
2013,08,24,06,28,13.40
2013,08,24,06,29,13.40
2013,08,24,06,30,13.40
2013,08,24,06,31,13.40
2013,08,24,06,32,13.40
2013,08,24,06,33,13.40
2013,08,24,06,34,13.40
2013,08,24,06,35,13.40
2013,08,24,06,36,13.40
2013,08,24,06,37,13.40
2013,08,24,06,38,13.40
2013,08,24,06,39,13.40
2013,08,24,06,40,13.40
2013,08,24,06,41,13.50
2013,08,24,06,42,13.50
2013,08,24,06,43,13.50
2013,08,24,06,44,13.50
2013,08,24,06,45,13.50
2013,08,24,06,46,13.50
2013,08,24,06,47,13.50
2013,08,24,06,48,13.60
2013,08,24,06,49,13.60
2013,08,24,06,50,13.60
2013,08,24,06,51,13.60
2013,08,24,06,52,13.60
2013,08,24,06,53,13.60
2013,08,24,06,54,13.60
2013,08,24,06,55,13.60
2013,08,24,06,56,13.60
2013,08,24,06,57,13.60
2013,08,24,06,58,13.70
2013,08,24,06,59,13.70
2013,08,24,07,00,13.70
2013,08,24,07,01,13.70
2013,08,24,07,02,13.70
2013,08,24,07,03,13.70
2013,08,24,07,04,13.70
2013,08,24,07,05,13.70
2013,08,24,07,06,13.80
2013,08,24,07,07,13.80
2013,08,24,07,08,13.80
2013,08,24,07,09,13.90
2013,08,24,07,10,13.90
2013,08,24,07,11,13.90
2013,08,24,07,12,13.90
2013,08,24,07,13,13.90
2013,08,24,07,14,14.00
2013,08,24,07,15,14.00
2013,08,24,07,16,14.00
2013,08,24,07,17,14.00
2013,08,24,07,18,14.00
2013,08,24,07,19,14.10
2013,08,24,07,20,14.10
2013,08,24,07,21,14.10
2013,08,24,07,22,14.10
2013,08,24,07,23,14.00
2013,08,24,07,24,14.00
2013,08,24,07,25,13.90
2013,08,24,07,26,13.90
2013,08,24,07,27,13.90
2013,08,24,07,28,13.90
2013,08,24,07,29,13.90
2013,08,24,07,30,13.90
2013,08,24,07,31,13.90
2013,08,24,07,32,13.90
2013,08,24,07,33,13.90
2013,08,24,07,34,13.90
2013,08,24,07,35,13.90
2013,08,24,07,36,13.90
2013,08,24,07,37,14.00
2013,08,24,07,38,14.00
2013,08,24,07,39,14.00
2013,08,24,07,40,14.00
2013,08,24,07,41,14.00
2013,08,24,07,42,14.10
2013,08,24,07,43,14.10
2013,08,24,07,44,14.10
2013,08,24,07,45,14.10
2013,08,24,07,46,14.20
2013,08,24,07,47,14.20
2013,08,24,07,48,14.20
2013,08,24,07,49,14.20
2013,08,24,07,50,14.20
2013,08,24,07,51,14.20
2013,08,24,07,52,14.30
2013,08,24,07,53,14.30
2013,08,24,07,54,14.30
2013,08,24,07,55,14.40
2013,08,24,07,56,14.50
2013,08,24,07,57,14.50
2013,08,24,07,58,14.50
2013,08,24,07,59,14.60
2013,08,24,08,00,14.60
2013,08,24,08,01,14.60
2013,08,24,08,02,14.70
2013,08,24,08,03,14.70
2013,08,24,08,04,14.80
2013,08,24,08,05,14.80
2013,08,24,08,06,14.80
2013,08,24,08,07,14.80
2013,08,24,08,08,14.80
2013,08,24,08,09,14.80
2013,08,24,08,10,14.80
2013,08,24,08,11,14.80
2013,08,24,08,12,14.80
2013,08,24,08,13,14.80
2013,08,24,08,14,14.80
2013,08,24,08,15,14.90
2013,08,24,08,16,14.90
2013,08,24,08,17,14.90
2013,08,24,08,18,14.90
2013,08,24,08,19,14.90
2013,08,24,08,20,14.80
2013,08,24,08,21,14.80
2013,08,24,08,22,14.80
2013,08,24,08,23,14.80
2013,08,24,08,24,14.70
2013,08,24,08,25,14.70
2013,08,24,08,26,14.70
2013,08,24,08,27,14.70
2013,08,24,08,28,14.70
2013,08,24,08,29,14.70
2013,08,24,08,30,14.80
2013,08,24,08,31,14.80
2013,08,24,08,32,14.80
2013,08,24,08,33,14.80
2013,08,24,08,34,14.80
2013,08,24,08,35,14.80
2013,08,24,08,36,14.70
2013,08,24,08,37,14.70
2013,08,24,08,38,14.70
2013,08,24,08,39,14.70
2013,08,24,08,40,14.70
2013,08,24,08,41,14.70
2013,08,24,08,42,14.70
2013,08,24,08,43,14.70
2013,08,24,08,44,14.60
2013,08,24,08,45,14.60
2013,08,24,08,46,14.60
2013,08,24,08,47,14.60
2013,08,24,08,48,14.70
2013,08,24,08,49,14.70
2013,08,24,08,50,14.70
2013,08,24,08,51,14.70
2013,08,24,08,52,14.80
2013,08,24,08,53,14.80
2013,08,24,08,54,14.90
2013,08,24,08,55,14.90
2013,08,24,08,56,15.00
2013,08,24,08,57,15.10
2013,08,24,08,58,15.20
2013,08,24,08,59,15.20
2013,08,24,09,00,15.30
2013,08,24,09,01,15.40
2013,08,24,09,02,15.50
2013,08,24,09,03,15.60
2013,08,24,09,04,15.60
2013,08,24,09,05,15.70
2013,08,24,09,06,15.80
2013,08,24,09,07,15.80
2013,08,24,09,08,15.80
2013,08,24,09,09,15.80
2013,08,24,09,10,15.80
2013,08,24,09,11,15.70
2013,08,24,09,12,15.70
2013,08,24,09,13,15.70
2013,08,24,09,14,15.60
2013,08,24,09,15,15.60
2013,08,24,09,16,15.70
2013,08,24,09,17,15.70
2013,08,24,09,18,15.80
2013,08,24,09,19,15.80
2013,08,24,09,20,15.80
2013,08,24,09,21,15.80
2013,08,24,09,22,15.80
2013,08,24,09,23,15.80
2013,08,24,09,24,15.80
2013,08,24,09,25,15.90
2013,08,24,09,26,16.00
2013,08,24,09,27,16.10
2013,08,24,09,28,16.10
2013,08,24,09,29,16.10
2013,08,24,09,30,16.10
2013,08,24,09,31,16.20
2013,08,24,09,32,16.20
2013,08,24,09,33,16.30
2013,08,24,09,34,16.30
2013,08,24,09,35,16.40
2013,08,24,09,36,16.40
2013,08,24,09,37,16.40
2013,08,24,09,38,16.40
2013,08,24,09,39,16.40
2013,08,24,09,40,16.40
2013,08,24,09,41,16.40
2013,08,24,09,42,16.40
2013,08,24,09,43,16.30
2013,08,24,09,44,16.30
2013,08,24,09,45,16.30
2013,08,24,09,46,16.40
2013,08,24,09,47,16.40
2013,08,24,09,48,16.50
2013,08,24,09,49,16.60
2013,08,24,09,50,16.70
2013,08,24,09,51,16.70
2013,08,24,09,52,16.80
2013,08,24,09,53,16.90
2013,08,24,09,54,17.00
2013,08,24,09,55,17.00
2013,08,24,09,56,17.10
2013,08,24,09,57,17.30
2013,08,24,09,58,17.40
2013,08,24,09,59,17.60
2013,08,24,10,00,17.70
2013,08,24,10,01,17.80
2013,08,24,10,02,17.90
2013,08,24,10,03,18.00
2013,08,24,10,04,18.20
2013,08,24,10,05,18.30
2013,08,24,10,06,18.40
2013,08,24,10,07,18.50
2013,08,24,10,08,18.50
2013,08,24,10,09,18.50
2013,08,24,10,10,18.50
2013,08,24,10,11,18.60
2013,08,24,10,12,18.60
2013,08,24,10,13,18.60
2013,08,24,10,14,18.60
2013,08,24,10,15,18.50
2013,08,24,10,16,18.50
2013,08,24,10,17,18.50
2013,08,24,10,18,18.50
2013,08,24,10,19,18.50
2013,08,24,10,20,18.60
2013,08,24,10,21,18.70
2013,08,24,10,22,18.70
2013,08,24,10,23,18.80
2013,08,24,10,24,18.90
2013,08,24,10,25,18.90
2013,08,24,10,26,18.90
2013,08,24,10,27,18.90
2013,08,24,10,28,18.80
2013,08,24,10,29,18.80
2013,08,24,10,30,18.80
2013,08,24,10,31,18.80
2013,08,24,10,32,18.80
2013,08,24,10,33,18.80
2013,08,24,10,34,18.90
2013,08,24,10,35,18.90
2013,08,24,10,36,19.00
2013,08,24,10,37,19.10
2013,08,24,10,38,19.10
2013,08,24,10,39,19.20
2013,08,24,10,40,19.20
2013,08,24,10,41,19.30
2013,08,24,10,42,19.40
2013,08,24,10,43,19.40
2013,08,24,10,44,19.50
2013,08,24,10,45,19.60
2013,08,24,10,46,19.70
2013,08,24,10,47,19.80
2013,08,24,10,48,19.70
2013,08,24,10,49,19.70
2013,08,24,10,50,19.80
2013,08,24,10,51,19.80
2013,08,24,10,52,19.90
2013,08,24,10,53,19.90
2013,08,24,10,54,19.90
2013,08,24,10,55,19.90
2013,08,24,10,56,19.90
2013,08,24,10,57,19.80
2013,08,24,10,58,19.70
2013,08,24,10,59,19.60
2013,08,24,11,00,19.60
2013,08,24,11,01,19.60
2013,08,24,11,02,19.60
2013,08,24,11,03,19.70
2013,08,24,11,04,19.70
2013,08,24,11,05,19.80
2013,08,24,11,06,19.90
2013,08,24,11,07,19.90
2013,08,24,11,08,19.90
2013,08,24,11,09,20.00
2013,08,24,11,10,20.10
2013,08,24,11,11,20.20
2013,08,24,11,12,20.20
2013,08,24,11,13,20.20
2013,08,24,11,14,20.20
2013,08,24,11,15,20.20
2013,08,24,11,16,20.40
2013,08,24,11,17,20.50
2013,08,24,11,18,20.70
2013,08,24,11,19,20.60
2013,08,24,11,20,20.60
2013,08,24,11,21,20.50
2013,08,24,11,22,20.20
2013,08,24,11,23,20.00
2013,08,24,11,24,19.90
2013,08,24,11,25,19.70
2013,08,24,11,26,19.60
2013,08,24,11,27,19.60
2013,08,24,11,28,19.60
2013,08,24,11,29,19.50
2013,08,24,11,30,19.20
2013,08,24,11,31,19.10
2013,08,24,11,32,19.00
2013,08,24,11,33,19.00
2013,08,24,11,34,19.10
2013,08,24,11,35,19.30
2013,08,24,11,36,19.40
2013,08,24,11,37,19.50
2013,08,24,11,38,19.60
2013,08,24,11,39,19.80
2013,08,24,11,40,19.90
2013,08,24,11,41,19.90
2013,08,24,11,42,20.00
2013,08,24,11,43,20.10
2013,08,24,11,44,20.20
2013,08,24,11,45,20.30
2013,08,24,11,46,20.30
2013,08,24,11,47,20.20
2013,08,24,11,48,20.20
2013,08,24,11,49,20.10
2013,08,24,11,50,20.00
2013,08,24,11,51,19.90
2013,08,24,11,52,19.80
2013,08,24,11,53,19.80
2013,08,24,11,54,19.80
2013,08,24,11,55,19.70
2013,08,24,11,56,19.60
2013,08,24,11,57,19.60
2013,08,24,11,58,19.60
2013,08,24,11,59,19.60
2013,08,24,12,00,19.50
2013,08,24,12,01,19.60
2013,08,24,12,02,19.60
2013,08,24,12,03,19.70
2013,08,24,12,04,19.80
2013,08,24,12,05,19.80
2013,08,24,12,06,19.80
2013,08,24,12,07,19.80
2013,08,24,12,08,19.80
2013,08,24,12,09,19.80
2013,08,24,12,10,19.80
2013,08,24,12,11,19.90
2013,08,24,12,12,19.90
2013,08,24,12,13,19.90
2013,08,24,12,14,19.80
2013,08,24,12,15,19.60
2013,08,24,12,16,19.50
2013,08,24,12,17,19.50
2013,08,24,12,18,19.50
2013,08,24,12,19,19.50
2013,08,24,12,20,19.40
2013,08,24,12,21,19.40
2013,08,24,12,22,19.50
2013,08,24,12,23,19.60
2013,08,24,12,24,19.60
2013,08,24,12,25,19.70
2013,08,24,12,26,19.80
2013,08,24,12,27,19.80
2013,08,24,12,28,19.90
2013,08,24,12,29,19.90
2013,08,24,12,30,19.80
2013,08,24,12,31,19.70
2013,08,24,12,32,19.80
2013,08,24,12,33,19.90
2013,08,24,12,34,19.90
2013,08,24,12,35,20.00
2013,08,24,12,36,20.20
2013,08,24,12,37,20.00
2013,08,24,12,38,19.80
2013,08,24,12,39,19.60
2013,08,24,12,40,19.40
2013,08,24,12,41,19.20
2013,08,24,12,42,18.80
2013,08,24,12,43,18.60
2013,08,24,12,44,18.40
2013,08,24,12,45,18.20
2013,08,24,12,46,18.10
2013,08,24,12,47,18.10
2013,08,24,12,48,18.10
2013,08,24,12,49,18.00
2013,08,24,12,50,17.90
2013,08,24,12,51,17.80
2013,08,24,12,52,17.80
2013,08,24,12,53,17.70
2013,08,24,12,54,17.70
2013,08,24,12,55,17.70
2013,08,24,12,56,17.80
2013,08,24,12,57,17.80
2013,08,24,12,58,17.70
2013,08,24,12,59,17.80
2013,08,24,13,00,17.90
2013,08,24,13,01,18.00
2013,08,24,13,02,18.10
2013,08,24,13,03,18.20
2013,08,24,13,04,18.30
2013,08,24,13,05,18.30
2013,08,24,13,06,18.30
2013,08,24,13,07,18.40
2013,08,24,13,08,18.30
2013,08,24,13,09,18.30
2013,08,24,13,10,18.40
2013,08,24,13,11,18.50
2013,08,24,13,12,18.60
2013,08,24,13,13,18.70
2013,08,24,13,14,18.80
2013,08,24,13,15,18.70
2013,08,24,13,16,18.70
2013,08,24,13,17,18.60
2013,08,24,13,18,18.60
2013,08,24,13,19,18.60
2013,08,24,13,20,18.60
2013,08,24,13,21,18.60
2013,08,24,13,22,18.60
2013,08,24,13,23,18.70
2013,08,24,13,24,18.80
2013,08,24,13,25,18.80
2013,08,24,13,26,18.70
2013,08,24,13,27,18.80
2013,08,24,13,28,18.90
2013,08,24,13,29,18.90
2013,08,24,13,30,19.00
2013,08,24,13,31,19.10
2013,08,24,13,32,19.10
2013,08,24,13,33,19.10
2013,08,24,13,34,19.10
2013,08,24,13,35,19.10
2013,08,24,13,36,19.20
2013,08,24,13,37,19.30
2013,08,24,13,38,19.40
2013,08,24,13,39,19.60
2013,08,24,13,40,19.50
2013,08,24,13,41,19.50
2013,08,24,13,42,19.50
2013,08,24,13,43,19.60
2013,08,24,13,44,19.50
2013,08,24,13,45,19.60
2013,08,24,13,46,19.70
2013,08,24,13,47,19.90
2013,08,24,13,48,19.90
2013,08,24,13,49,20.00
2013,08,24,13,50,20.10
2013,08,24,13,51,20.20
2013,08,24,13,52,20.00
2013,08,24,13,53,19.90
2013,08,24,13,54,19.80
2013,08,24,13,55,19.80
2013,08,24,13,56,19.80
2013,08,24,13,57,19.90
2013,08,24,13,58,20.00
2013,08,24,13,59,20.10
2013,08,24,14,00,20.10
2013,08,24,14,01,20.10
2013,08,24,14,02,20.10
2013,08,24,14,03,20.10
2013,08,24,14,04,20.20
2013,08,24,14,05,20.20
2013,08,24,14,06,20.20
2013,08,24,14,07,20.20
2013,08,24,14,08,20.30
2013,08,24,14,09,20.40
2013,08,24,14,10,20.40
2013,08,24,14,11,20.30
2013,08,24,14,12,20.20
2013,08,24,14,13,20.20
2013,08,24,14,14,20.20
2013,08,24,14,15,20.10
2013,08,24,14,16,19.90
2013,08,24,14,17,19.90
2013,08,24,14,18,19.90
2013,08,24,14,19,19.80
2013,08,24,14,20,19.70
2013,08,24,14,21,19.70
2013,08,24,14,22,19.60
2013,08,24,14,23,19.60
2013,08,24,14,24,19.50
2013,08,24,14,25,19.60
2013,08,24,14,26,19.70
2013,08,24,14,27,19.90
2013,08,24,14,28,20.20
2013,08,24,14,29,20.40
2013,08,24,14,30,20.60
2013,08,24,14,31,20.80
2013,08,24,14,32,20.90
2013,08,24,14,33,21.00
2013,08,24,14,34,21.10
2013,08,24,14,35,21.20
2013,08,24,14,36,21.20
2013,08,24,14,37,21.30
2013,08,24,14,38,21.40
2013,08,24,14,39,21.60
2013,08,24,14,40,21.60
2013,08,24,14,41,21.80
2013,08,24,14,42,21.90
2013,08,24,14,43,22.00
2013,08,24,14,44,22.00
2013,08,24,14,45,21.90
2013,08,24,14,46,21.80
2013,08,24,14,47,21.90
2013,08,24,14,48,22.00
2013,08,24,14,49,22.10
2013,08,24,14,50,22.10
2013,08,24,14,51,22.00
2013,08,24,14,52,22.00
2013,08,24,14,53,22.00
2013,08,24,14,54,21.90
2013,08,24,14,55,21.80
2013,08,24,14,56,21.70
2013,08,24,14,57,21.80
2013,08,24,14,58,21.80
2013,08,24,14,59,21.80
2013,08,24,15,00,21.70
2013,08,24,15,01,21.60
2013,08,24,15,02,21.50
2013,08,24,15,03,21.30
2013,08,24,15,04,21.20
2013,08,24,15,05,21.00
2013,08,24,15,06,21.00
2013,08,24,15,07,21.00
2013,08,24,15,08,21.00
2013,08,24,15,09,21.00
2013,08,24,15,10,21.10
2013,08,24,15,11,21.10
2013,08,24,15,12,21.10
2013,08,24,15,13,21.10
2013,08,24,15,14,21.10
2013,08,24,15,15,21.00
2013,08,24,15,16,20.90
2013,08,24,15,17,20.80
2013,08,24,15,18,20.60
2013,08,24,15,19,20.60
2013,08,24,15,20,20.60
2013,08,24,15,21,20.50
2013,08,24,15,22,20.50
2013,08,24,15,23,20.40
2013,08,24,15,24,20.40
2013,08,24,15,25,20.40
2013,08,24,15,26,20.40
2013,08,24,15,27,20.40
2013,08,24,15,28,20.30
2013,08,24,15,29,20.30
2013,08,24,15,30,20.30
2013,08,24,15,31,20.20
2013,08,24,15,32,20.20
2013,08,24,15,33,20.20
2013,08,24,15,34,20.10
2013,08,24,15,35,20.10
2013,08,24,15,36,20.10
2013,08,24,15,37,20.10
2013,08,24,15,38,19.90
2013,08,24,15,39,19.90
2013,08,24,15,40,19.90
2013,08,24,15,41,19.90
2013,08,24,15,42,19.90
2013,08,24,15,43,19.90
2013,08,24,15,44,19.90
2013,08,24,15,45,19.90
2013,08,24,15,46,19.90
2013,08,24,15,47,19.90
2013,08,24,15,48,19.90
2013,08,24,15,49,19.90
2013,08,24,15,50,19.90
2013,08,24,15,51,19.90
2013,08,24,15,52,19.90
2013,08,24,15,53,19.90
2013,08,24,15,54,19.90
2013,08,24,15,55,19.80
2013,08,24,15,56,19.70
2013,08,24,15,57,19.70
2013,08,24,15,58,19.60
2013,08,24,15,59,19.60
2013,08,24,16,00,19.50
2013,08,24,16,01,19.50
2013,08,24,16,02,19.40
2013,08,24,16,03,19.40
2013,08,24,16,04,19.30
2013,08,24,16,05,19.30
2013,08,24,16,06,19.30
2013,08,24,16,07,19.40
2013,08,24,16,08,19.40
2013,08,24,16,09,19.40
2013,08,24,16,10,19.40
2013,08,24,16,11,19.40
2013,08,24,16,12,19.40
2013,08,24,16,13,19.30
2013,08,24,16,14,19.30
2013,08,24,16,15,19.30
2013,08,24,16,16,19.30
2013,08,24,16,17,19.30
2013,08,24,16,18,19.30
2013,08,24,16,19,19.30
2013,08,24,16,20,19.40
2013,08,24,16,21,19.40
2013,08,24,16,22,19.40
2013,08,24,16,23,19.50
2013,08,24,16,24,19.60
2013,08,24,16,25,19.60
2013,08,24,16,26,19.60
2013,08,24,16,27,19.50
2013,08,24,16,28,19.50
2013,08,24,16,29,19.50
2013,08,24,16,30,19.60
2013,08,24,16,31,19.60
2013,08,24,16,32,19.60
2013,08,24,16,33,19.60
2013,08,24,16,34,19.60
2013,08,24,16,35,19.60
2013,08,24,16,36,19.60
2013,08,24,16,37,19.60
2013,08,24,16,38,19.60
2013,08,24,16,39,19.60
2013,08,24,16,40,19.60
2013,08,24,16,41,19.60
2013,08,24,16,42,19.60
2013,08,24,16,43,19.60
2013,08,24,16,44,19.60
2013,08,24,16,45,19.50
2013,08,24,16,46,19.50
2013,08,24,16,47,19.50
2013,08,24,16,48,19.50
2013,08,24,16,49,19.40
2013,08,24,16,50,19.40
2013,08,24,16,51,19.40
2013,08,24,16,52,19.40
2013,08,24,16,53,19.40
2013,08,24,16,54,19.40
2013,08,24,16,55,19.40
2013,08,24,16,56,19.50
2013,08,24,16,57,19.50
2013,08,24,16,58,19.40
2013,08,24,16,59,19.40
2013,08,24,17,00,19.40
2013,08,24,17,01,19.40
2013,08,24,17,02,19.40
2013,08,24,17,03,19.40
2013,08,24,17,04,19.30
2013,08,24,17,05,19.30
2013,08,24,17,06,19.30
2013,08,24,17,07,19.30
2013,08,24,17,08,19.40
2013,08,24,17,09,19.40
2013,08,24,17,10,19.50
2013,08,24,17,11,19.50
2013,08,24,17,12,19.50
2013,08,24,17,13,19.60
2013,08,24,17,14,19.60
2013,08,24,17,15,19.60
2013,08,24,17,16,19.60
2013,08,24,17,17,19.70
2013,08,24,17,18,19.70
2013,08,24,17,19,19.70